TimeICT,TemperatureF,Dew PointF,Humidity,Sea Level PressureIn,VisibilityMPH,Wind Direction,Wind SpeedMPH,Gust SpeedMPH,PrecipitationIn,Events,Conditions,WindDirDegrees,DateUTC
12:00 AM,80.6,75.2,84,29.83,6.2,Calm,Calm,-,N/A,,Scattered Clouds,0,2013-05-31 17:00:00
12:30 AM,78.8,75.2,89,29.83,6.2,Calm,Calm,-,N/A,,Mostly Cloudy,0,2013-05-31 17:30:00
1:00 AM,81,78,86,29.78,6,Calm,Calm,,,,Scattered Clouds,,2013-05-31 18:00:00
1:00 AM,78.8,75.2,89,29.80,6.2,Calm,Calm,-,N/A,,Mostly Cloudy,0,2013-05-31 18:00:00
1:30 AM,78.8,75.2,89,29.80,6.2,Calm,Calm,-,N/A,,Mostly Cloudy,0,2013-05-31 18:30:00
2:00 AM,78.8,75.2,89,29.80,6.2,Calm,Calm,-,N/A,,Mostly Cloudy,0,2013-05-31 19:00:00
2:30 AM,78.8,75.2,89,29.80,6.2,Calm,Calm,-,N/A,,Mostly Cloudy,0,2013-05-31 19:30:00
3:00 AM,78.8,75.2,89,29.77,6.2,Variable,1.2,-,N/A,,Mostly Cloudy,0,2013-05-31 20:00:00
3:30 AM,78.8,75.2,89,29.77,6.2,Calm,Calm,-,N/A,,Mostly Cloudy,0,2013-05-31 20:30:00
4:00 AM,78.8,75.2,89,29.77,6.2,Calm,Calm,-,N/A,,Mostly Cloudy,0,2013-05-31 21:00:00
4:30 AM,80.6,75.2,84,29.74,6.2,NW,5.8,-,N/A,,Mostly Cloudy,310,2013-05-31 21:30:00
5:00 AM,80.6,75.2,84,29.74,6.2,NW,4.6,-,N/A,,Mostly Cloudy,320,2013-05-31 22:00:00
5:30 AM,80.6,75.2,84,29.77,6.2,NNW,4.6,-,N/A,,Mostly Cloudy,330,2013-05-31 22:30:00
6:00 AM,80.6,75.2,84,29.77,6.2,North,4.6,-,N/A,,Mostly Cloudy,350,2013-05-31 23:00:00
6:30 AM,80.6,75.2,84,29.77,6.2,Variable,1.2,-,N/A,,Mostly Cloudy,0,2013-05-31 23:30:00
7:00 AM,82,78,83,29.75,6,Calm,Calm,,,,Scattered Clouds,,2013-06-01 00:00:00
7:00 AM,80.6,75.2,84,29.77,6.2,Calm,Calm,-,N/A,,Mostly Cloudy,0,2013-06-01 00:00:00
7:30 AM,84.2,75.2,74,29.80,6.2,Variable,1.2,-,N/A,,Mostly Cloudy,0,2013-06-01 00:30:00
8:00 AM,84.2,75.2,74,29.80,6.2,Variable,2.3,-,N/A,,Mostly Cloudy,0,2013-06-01 01:00:00
8:30 AM,86.0,75.2,70,29.80,6.2,North,3.5,-,N/A,,Mostly Cloudy,10,2013-06-01 01:30:00
9:00 AM,86.0,75.2,70,29.80,6.2,WNW,3.5,-,N/A,,Mostly Cloudy,300,2013-06-01 02:00:00
9:30 AM,84.2,75.2,74,29.80,6.2,West,8.1,-,N/A,,Mostly Cloudy,270,2013-06-01 02:30:00
10:00 AM,87.8,75.2,66,29.80,6.2,West,5.8,-,N/A,,Scattered Clouds,280,2013-06-01 03:00:00
10:30 AM,87.8,73.4,62,29.80,6.2,WNW,9.2,-,N/A,,Scattered Clouds,300,2013-06-01 03:30:00
11:00 AM,87.8,73.4,62,29.77,6.2,WNW,9.2,-,N/A,,Scattered Clouds,300,2013-06-01 04:00:00
11:30 AM,87.8,75.2,66,29.77,6.2,WNW,9.2,-,N/A,,Scattered Clouds,290,2013-06-01 04:30:00
12:00 PM,87.8,75.2,66,29.77,6.2,WNW,10.4,-,N/A,,Scattered Clouds,290,2013-06-01 05:00:00
12:30 PM,87.8,73.4,62,29.77,6.2,West,12.7,-,N/A,,Scattered Clouds,270,2013-06-01 05:30:00
1:00 PM,88,77,64,29.73,6,West,5.8,,,,Scattered Clouds,270,2013-06-01 06:00:00
1:00 PM,87.8,75.2,66,29.74,6.2,West,12.7,-,N/A,,Scattered Clouds,270,2013-06-01 06:00:00
1:30 PM,87.8,75.2,66,29.74,6.2,West,12.7,-,N/A,,Mostly Cloudy,270,2013-06-01 06:30:00
2:00 PM,89.6,75.2,62,29.74,6.2,West,13.8,-,N/A,,Mostly Cloudy,270,2013-06-01 07:00:00
2:30 PM,87.8,75.2,66,29.71,6.2,West,13.8,-,N/A,,Mostly Cloudy,270,2013-06-01 07:30:00
3:00 PM,87.8,75.2,66,29.71,5.6,West,15.0,-,N/A,,Mostly Cloudy,280,2013-06-01 08:00:00
3:30 PM,87.8,75.2,66,29.71,5.6,West,13.8,-,N/A,,Mostly Cloudy,280,2013-06-01 08:30:00
4:00 PM,87.8,75.2,66,29.68,5.6,West,12.7,-,N/A,,Mostly Cloudy,280,2013-06-01 09:00:00
4:30 PM,86.0,75.2,70,29.71,5.6,WNW,10.4,-,N/A,,Mostly Cloudy,290,2013-06-01 09:30:00
5:00 PM,86.0,75.2,70,29.71,5.6,West,13.8,-,N/A,,Mostly Cloudy,280,2013-06-01 10:00:00
5:30 PM,84.2,75.2,74,29.71,5.6,West,11.5,-,N/A,,Mostly Cloudy,280,2013-06-01 10:30:00
6:00 PM,84.2,75.2,74,29.71,5.6,West,15.0,-,N/A,,Mostly Cloudy,280,2013-06-01 11:00:00
6:30 PM,84.2,75.2,74,29.74,5.6,West,10.4,-,N/A,,Mostly Cloudy,280,2013-06-01 11:30:00
7:00 PM,86,77,68,29.70,6,Calm,Calm,,,,Scattered Clouds,,2013-06-01 12:00:00
7:00 PM,84.2,73.4,70,29.74,5.6,WNW,10.4,-,N/A,,Mostly Cloudy,290,2013-06-01 12:00:00
7:30 PM,84.2,73.4,70,29.74,5.6,West,11.5,-,N/A,,Mostly Cloudy,280,2013-06-01 12:30:00
8:00 PM,84.2,73.4,70,29.77,5.6,WNW,10.4,-,N/A,,Mostly Cloudy,290,2013-06-01 13:00:00
8:30 PM,84.2,75.2,74,29.77,6.2,WNW,9.2,-,N/A,,Scattered Clouds,290,2013-06-01 13:30:00
9:00 PM,84.2,73.4,70,29.80,6.2,WNW,10.4,-,N/A,,Scattered Clouds,300,2013-06-01 14:00:00
9:30 PM,84.2,75.2,74,29.80,6.2,WNW,9.2,-,N/A,,Mostly Cloudy,290,2013-06-01 14:30:00
10:00 PM,82.4,75.2,79,29.80,6.2,NW,8.1,-,N/A,,Mostly Cloudy,320,2013-06-01 15:00:00
10:30 PM,82.4,75.2,79,29.80,6.2,WNW,9.2,-,N/A,,Mostly Cloudy,290,2013-06-01 15:30:00
11:00 PM,84.2,75.2,74,29.80,5.0,WNW,17.3,-,N/A,Rain,Rain,290,2013-06-01 16:00:00
11:30 PM,77.0,73.4,89,29.83,0.9,WNW,13.8,-,N/A,Rain,Rain,300,2013-06-01 16:30:00